Location: Pegasus Observatory
(35.6569°N, 82.5850°W)
Time: 14:57:41
(UTC-04:00)

SRMSAT - Visible Passes

Search period start: 10 April 2020 00:00
Search period end: 20 April 2020 00:00
Orbit: 848 x 865 km, 20.0° (Epoch: 10 April)

Date Brightness Start Highest point End Pass type
(mag) Time Alt. Az. Time Alt. Az. Time Alt. Az.
10 Apr ? 20:33:09 10° SW 20:36:54 17° S 20:40:38 10° SE visible
10 Apr ? 22:22:36 10° SW 22:23:35 12° SSW 22:23:35 12° SSW visible
11 Apr ? 20:20:05 10° SW 20:23:48 17° S 20:27:31 10° SE visible
11 Apr ? 22:09:52 10° SW 22:11:27 12° SSW 22:11:27 12° SSW visible
12 Apr ? 21:57:17 10° SSW 21:59:06 11° SSW 21:59:19 11° SSW visible
13 Apr ? 21:45:03 10° SSW 21:46:00 10° SSW 21:46:58 10° S visible
